Time,TemperatureF,DewpointF,PressureIn,WindDirection,WindDirectionDegrees,WindSpeedMPH,WindSpeedGustMPH,Humidity,HourlyPrecipIn,Conditions,Clouds,dailyrainin,SoftwareType,DateUTC
2013-07-30 00:03:00,63.0,62.0,-100.00,ENE,65,7.0,12.0,97,0.00,,,-99.99,,2013-07-30 05:03:00,
2013-07-30 00:12:00,63.0,62.0,-100.00,ENE,60,6.0,10.0,97,0.00,,,-99.99,,2013-07-30 05:12:00,
2013-07-30 00:23:00,63.0,62.0,-100.00,NE,55,7.0,10.0,98,0.00,,,-99.99,,2013-07-30 05:23:00,
2013-07-30 00:33:00,63.0,62.0,-100.00,ENE,60,6.0,10.0,98,0.00,,,-99.99,,2013-07-30 05:33:00,
2013-07-30 00:45:00,63.0,62.0,-100.00,ENE,60,6.0,7.0,98,0.00,,,-99.99,,2013-07-30 05:45:00,
2013-07-30 01:03:00,63.0,62.0,-100.00,ENE,60,6.0,9.0,98,1.11,,,-99.99,,2013-07-30 06:03:00,
2013-07-30 01:13:00,63.0,62.0,-100.00,ENE,60,7.0,9.0,98,1.37,,,-99.99,,2013-07-30 06:13:00,
2013-07-30 01:23:00,63.0,63.0,-100.00,ENE,65,7.0,9.0,98,0.88,,,-99.99,,2013-07-30 06:23:00,
2013-07-30 01:33:00,63.0,63.0,-100.00,ENE,60,3.0,7.0,98,1.30,,,-99.99,,2013-07-30 06:33:00,
2013-07-30 01:43:00,63.0,63.0,-100.00,ENE,60,7.0,11.0,98,0.71,,,-99.99,,2013-07-30 06:43:00,
2013-07-30 01:53:00,63.0,63.0,-100.00,NE,55,7.0,12.0,98,0.00,,,-99.99,,2013-07-30 06:53:00,
2013-07-30 02:33:00,63.0,63.0,-100.00,ENE,60,7.0,12.0,98,0.00,,,-99.99,,2013-07-30 07:33:00,
2013-07-30 02:43:00,63.0,63.0,-100.00,ENE,65,6.0,12.0,98,13.19,,,-99.99,,2013-07-30 07:43:00,
2013-07-30 02:53:00,63.0,63.0,-100.00,ENE,65,6.0,12.0,98,13.19,,,-99.99,,2013-07-30 07:53:00,
2013-07-30 03:03:00,63.0,63.0,-100.00,ENE,60,6.0,9.0,98,1.23,,,-99.99,,2013-07-30 08:03:00,
2013-07-30 03:13:00,63.0,63.0,-100.00,ENE,60,6.0,9.0,98,1.03,,,-99.99,,2013-07-30 08:13:00,
2013-07-30 03:33:00,63.0,63.0,-100.00,NE,50,5.0,10.0,98,0.00,,,-99.99,,2013-07-30 08:33:00,
2013-07-30 03:43:00,63.0,63.0,-100.00,ENE,60,4.0,7.0,98,0.00,,,-99.99,,2013-07-30 08:43:00,
2013-07-30 04:03:00,63.0,63.0,-100.00,NE,55,6.0,9.0,98,0.00,,,-99.99,,2013-07-30 09:03:00,
2013-07-30 04:33:00,63.0,63.0,-100.00,NE,55,4.0,7.0,98,0.00,,,-99.99,,2013-07-30 09:33:00,
2013-07-30 04:43:00,63.0,63.0,-100.00,ENE,60,5.0,7.0,98,1.13,,,-99.99,,2013-07-30 09:43:00,
2013-07-30 04:53:00,63.0,63.0,-100.00,ENE,60,6.0,7.0,98,0.00,,,-99.99,,2013-07-30 09:53:00,
2013-07-30 05:12:00,63.0,63.0,-100.00,ENE,60,4.0,7.0,98,0.00,,,-99.99,,2013-07-30 10:12:00,
2013-07-30 05:23:00,63.0,63.0,-100.00,ENE,60,4.0,7.0,98,0.00,,,-99.99,,2013-07-30 10:23:00,
2013-07-30 05:32:00,63.0,63.0,-100.00,ENE,60,2.0,5.0,98,0.00,,,-99.99,,2013-07-30 10:32:00,
2013-07-30 05:44:00,63.0,63.0,-100.00,ENE,65,4.0,5.0,98,0.00,,,-99.99,,2013-07-30 10:44:00,
2013-07-30 05:52:00,63.0,63.0,-100.00,ENE,70,2.0,5.0,98,0.00,,,-99.99,,2013-07-30 10:52:00,
2013-07-30 06:11:00,63.0,63.0,-100.00,ENE,60,2.0,5.0,98,0.00,,,-99.99,,2013-07-30 11:11:00,
2013-07-30 06:22:00,63.0,63.0,-100.00,ENE,70,4.0,6.0,98,0.00,,,-99.99,,2013-07-30 11:22:00,
2013-07-30 06:33:00,63.0,63.0,-100.00,ENE,70,4.0,6.0,98,0.00,,,-99.99,,2013-07-30 11:33:00,
2013-07-30 06:43:00,63.0,63.0,-100.00,ENE,60,4.0,6.0,98,0.00,,,-99.99,,2013-07-30 11:43:00,
2013-07-30 07:12:00,64.0,63.0,-100.00,ENE,65,3.0,4.0,98,0.00,,,-99.99,,2013-07-30 12:12:00,
2013-07-30 07:42:00,64.0,64.0,-100.00,ENE,70,2.0,4.0,98,0.00,,,-99.99,,2013-07-30 12:42:00,
2013-07-30 07:53:00,64.0,64.0,-100.00,ENE,70,2.0,4.0,98,0.00,,,-99.99,,2013-07-30 12:53:00,
2013-07-30 08:12:00,65.0,64.0,-100.00,ENE,60,2.0,5.0,98,0.00,,,-99.99,,2013-07-30 13:12:00,
2013-07-30 08:32:00,65.0,64.0,-100.00,ENE,60,3.0,6.0,98,0.00,,,-99.99,,2013-07-30 13:32:00,
2013-07-30 08:42:00,65.0,65.0,-100.00,ENE,65,3.0,4.0,98,0.00,,,-99.99,,2013-07-30 13:42:00,
2013-07-30 09:02:00,65.0,65.0,-100.00,ENE,70,4.0,6.0,98,0.00,,,-99.99,,2013-07-30 14:02:00,
2013-07-30 09:12:00,65.0,65.0,-100.00,ENE,70,2.0,6.0,98,0.00,,,-99.99,,2013-07-30 14:12:00,
2013-07-30 09:33:00,65.0,65.0,-100.00,ENE,75,1.0,5.0,98,0.00,,,-99.99,,2013-07-30 14:33:00,
2013-07-30 09:43:00,65.0,65.0,-100.00,ENE,70,2.0,6.0,98,0.00,,,-99.99,,2013-07-30 14:43:00,
2013-07-30 10:33:00,66.0,66.0,-100.00,ENE,65,1.0,3.0,98,0.00,,,-99.99,,2013-07-30 15:33:00,
2013-07-30 10:43:00,66.0,66.0,-100.00,North,5,1.0,2.0,98,0.00,,,-99.99,,2013-07-30 15:43:00,
2013-07-30 10:52:00,67.0,66.0,-100.00,North,5,0.0,2.0,98,0.00,,,-99.99,,2013-07-30 15:52:00,
2013-07-30 11:12:00,68.0,67.0,-100.00,SSW,210,3.0,4.0,98,0.00,,,-99.99,,2013-07-30 16:12:00,
2013-07-30 11:22:00,68.0,67.0,-100.00,SSW,210,3.0,4.0,98,0.00,,,-99.99,,2013-07-30 16:22:00,
2013-07-30 12:12:00,69.0,69.0,-100.00,North,10,4.0,6.0,97,0.00,,,-99.99,,2013-07-30 17:12:00,
2013-07-30 12:22:00,69.0,69.0,-100.00,North,10,4.0,6.0,97,0.00,,,-99.99,,2013-07-30 17:22:00,
2013-07-30 12:43:00,69.0,68.0,-100.00,NNE,20,3.0,4.0,95,0.00,,,-99.99,,2013-07-30 17:43:00,
2013-07-30 13:12:00,70.0,68.0,-100.00,NNE,20,2.0,7.0,90,0.00,,,-99.99,,2013-07-30 18:12:00,
2013-07-30 13:23:00,71.0,68.0,-100.00,North,0,5.0,7.0,89,0.00,,,-99.99,,2013-07-30 18:23:00,
2013-07-30 13:32:00,71.0,67.0,-100.00,North,0,6.0,7.0,89,0.00,,,-99.99,,2013-07-30 18:32:00,
2013-07-30 13:43:00,71.0,68.0,-100.00,North,5,5.0,7.0,88,0.00,,,-99.99,,2013-07-30 18:43:00,
2013-07-30 13:52:00,72.0,68.0,-100.00,North,5,5.0,7.0,87,0.00,,,-99.99,,2013-07-30 18:52:00,
2013-07-30 14:03:00,72.0,68.0,-100.00,North,5,5.0,7.0,87,0.00,,,-99.99,,2013-07-30 19:03:00,
2013-07-30 14:12:00,71.0,67.0,-100.00,SW,235,6.0,8.0,87,0.00,,,-99.99,,2013-07-30 19:12:00,
2013-07-30 14:22:00,72.0,68.0,-100.00,WSW,240,6.0,7.0,86,0.00,,,-99.99,,2013-07-30 19:22:00,
2013-07-30 14:33:00,72.0,68.0,-100.00,WSW,240,6.0,7.0,86,0.00,,,-99.99,,2013-07-30 19:33:00,
2013-07-30 14:44:00,72.0,67.0,-100.00,North,10,7.0,9.0,85,0.00,,,-99.99,,2013-07-30 19:44:00,
2013-07-30 15:02:00,71.0,67.0,-100.00,WSW,240,6.0,9.0,86,0.00,,,-99.99,,2013-07-30 20:02:00,
2013-07-30 15:12:00,71.0,67.0,-100.00,NNE,15,6.0,7.0,87,0.00,,,-99.99,,2013-07-30 20:12:00,
2013-07-30 15:22:00,71.0,67.0,-100.00,NNE,20,5.0,6.0,88,0.00,,,-99.99,,2013-07-30 20:22:00,
2013-07-30 15:43:00,70.0,67.0,-100.00,NNE,20,4.0,6.0,90,0.00,,,-99.99,,2013-07-30 20:43:00,
2013-07-30 16:02:00,70.0,67.0,-100.00,NNE,25,4.0,7.0,91,0.00,,,-99.99,,2013-07-30 21:02:00,
2013-07-30 16:12:00,70.0,67.0,-100.00,NNE,25,6.0,8.0,91,0.00,,,-99.99,,2013-07-30 21:12:00,
2013-07-30 16:22:00,70.0,67.0,-100.00,NNE,15,5.0,7.0,92,0.00,,,-99.99,,2013-07-30 21:22:00,
2013-07-30 16:32:00,70.0,67.0,-100.00,NNE,15,5.0,7.0,92,0.00,,,-99.99,,2013-07-30 21:32:00,
2013-07-30 16:42:00,70.0,68.0,-100.00,NNE,15,5.0,7.0,93,0.00,,,-99.99,,2013-07-30 21:42:00,
2013-07-30 16:52:00,70.0,68.0,-100.00,NNE,15,5.0,7.0,93,0.00,,,-99.99,,2013-07-30 21:52:00,
2013-07-30 17:02:00,70.0,68.0,-100.00,NE,40,4.0,6.0,93,0.00,,,-99.99,,2013-07-30 22:02:00,
2013-07-30 17:12:00,70.0,68.0,-100.00,NE,35,6.0,7.0,92,0.00,,,-99.99,,2013-07-30 22:12:00,
2013-07-30 17:32:00,70.0,68.0,-100.00,NNE,20,4.0,6.0,92,0.00,,,-99.99,,2013-07-30 22:32:00,
2013-07-30 17:43:00,71.0,68.0,-100.00,North,10,4.0,7.0,89,0.00,,,-99.99,,2013-07-30 22:43:00,
2013-07-30 17:52:00,71.0,68.0,-100.00,North,10,4.0,7.0,89,0.00,,,-99.99,,2013-07-30 22:52:00,
2013-07-30 18:02:00,71.0,67.0,-100.00,North,10,4.0,6.0,89,0.00,,,-99.99,,2013-07-30 23:02:00,
2013-07-30 18:12:00,70.0,67.0,-100.00,NE,35,4.0,6.0,90,0.00,,,-99.99,,2013-07-30 23:12:00,
2013-07-30 18:22:00,70.0,67.0,-100.00,NE,40,2.0,6.0,92,0.00,,,-99.99,,2013-07-30 23:22:00,
2013-07-30 18:32:00,70.0,67.0,-100.00,NE,40,2.0,6.0,92,0.00,,,-99.99,,2013-07-30 23:32:00,
2013-07-30 18:42:00,70.0,68.0,-100.00,NNE,30,6.0,7.0,93,0.00,,,-99.99,,2013-07-30 23:42:00,
2013-07-30 18:53:00,70.0,68.0,-100.00,NNE,30,6.0,7.0,93,0.00,,,-99.99,,2013-07-30 23:53:00,
2013-07-30 19:02:00,69.0,68.0,-100.00,NNE,20,3.0,5.0,94,0.00,,,-99.99,,2013-07-31 00:02:00,
2013-07-30 19:12:00,69.0,68.0,-100.00,NNE,15,2.0,4.0,95,0.00,,,-99.99,,2013-07-31 00:12:00,
2013-07-30 19:32:00,69.0,68.0,-100.00,NNE,25,4.0,6.0,95,0.00,,,-99.99,,2013-07-31 00:32:00,
2013-07-30 19:43:00,69.0,68.0,-100.00,NNE,25,3.0,6.0,94,0.00,,,-99.99,,2013-07-31 00:43:00,
2013-07-30 19:53:00,69.0,68.0,-100.00,NNE,25,2.0,4.0,94,0.00,,,-99.99,,2013-07-31 00:53:00,
2013-07-30 20:02:00,69.0,68.0,-100.00,North,10,2.0,4.0,95,0.00,,,-99.99,,2013-07-31 01:02:00,
2013-07-30 20:32:00,69.0,67.0,-100.00,North,0,1.0,4.0,95,0.00,,,-99.99,,2013-07-31 01:32:00,
2013-07-30 20:42:00,69.0,67.0,-100.00,WSW,240,4.0,4.0,96,0.00,,,-99.99,,2013-07-31 01:42:00,
2013-07-30 21:02:00,68.0,67.0,-100.00,WSW,240,4.0,5.0,96,0.00,,,-99.99,,2013-07-31 02:02:00,
2013-07-30 21:32:00,68.0,67.0,-100.00,SSW,210,3.0,5.0,96,0.00,,,-99.99,,2013-07-31 02:32:00,
2013-07-30 21:42:00,68.0,67.0,-100.00,SW,220,3.0,4.0,97,0.00,,,-99.99,,2013-07-31 02:42:00,
2013-07-30 21:52:00,68.0,67.0,-100.00,SW,225,2.0,4.0,97,0.00,,,-99.99,,2013-07-31 02:52:00,
2013-07-30 22:22:00,68.0,67.0,-100.00,North,10,1.0,2.0,97,0.00,,,-99.99,,2013-07-31 03:22:00,
2013-07-30 22:42:00,68.0,67.0,-100.00,North,5,3.0,6.0,97,0.00,,,-99.99,,2013-07-31 03:42:00,
2013-07-30 22:52:00,67.0,67.0,-100.00,North,10,4.0,6.0,97,0.00,,,-99.99,,2013-07-31 03:52:00,
2013-07-30 23:12:00,67.0,67.0,-100.00,NNE,15,2.0,5.0,98,0.00,,,-99.99,,2013-07-31 04:12:00,
2013-07-30 23:22:00,67.0,66.0,-100.00,NNE,30,1.0,2.0,98,0.00,,,-99.99,,2013-07-31 04:22:00,
2013-07-30 23:32:00,67.0,66.0,-100.00,NNE,30,1.0,2.0,98,0.00,,,-99.99,,2013-07-31 04:32:00,
2013-07-30 23:42:00,67.0,66.0,-100.00,NNE,25,1.0,1.0,98,0.00,,,-99.99,,2013-07-31 04:42:00,
2013-07-30 23:52:00,67.0,66.0,-100.00,North,10,0.0,2.0,98,0.00,,,-99.99,,2013-07-31 04:52:00,